User: anonymous   Login
Location: Unspecified
(0.0000°N, 0.0000°E)
Time: 09:30:40
(UTC+00:00)
Language:

IRS-1D - Orbit

View from above orbital plane
View from above orbital plane
View from above satellite
View from above satellite

Ground track
Ground track

The orbit data is extracted from the following two-line orbital elements,

1 24971U 97057A   18018.55070625 -.00000005 +00000-0 +13469-4 0  9992
2 24971 098.4610 326.8731 0052514 303.6008 056.0161 14.33904940062284
Epoch (UTC): 18 January 2018 13:13:01
Eccentricity: 0.0052514
inclination: 98.4610°
perigee height: 741 km
apogee height: 816 km
right ascension of ascending node: 326.8731°
argument of perigee: 303.6008°
revolutions per day: 14.33904940
mean anomaly at epoch: 56.0161°
orbit number at epoch: 6228

The dashed part of the orbit path shows where the satellite is in the earth's shadow,  

DLR